星链-2341 (STARLINK-2341 )

导读 | 豆包AI

STARLINK-2341是美国太空探索技术公司星链星座的卫星,由美国于2021年3月11日发射,属于星链互联网卫星组网的组成部分,主要承担为全球提供低延迟、高速率卫星互联网服务的任务,运行在近地轨道,是星链大规模组网进程中发射的批次卫星之一。

Basic Information
目录编号:
47794
目录名称:
STARLINK-2341
国际标识:
2021-018H
轨道中心:
EARTH
卫星名称:
星链-2341
卫星全名:
星链-2341 (STARLINK-2341 )
卫星状态:
已陨落 最后检测时间 2024-05-24
发射日期:
2021-03-11 UTC
国别 :
美国 (US)
星等 :
--
Orbit Information
数据来源 国际轨道数据
星历时间: 2024-05-24T22:52:14+0800
轨道信息已过期705天
半长轴: 6531.642km
偏心率: 0.0008848
轨道倾角: 53.022°
近地点辐角 196.403°
升交点赤经 254.415°
平近点角 163.727°
近地点: 147.727km
远地点: 159.287km
周期: 87.557分钟
每日圈数: 16.446341
Detailed Information
固有亮度:
5
最大亮度:
2.5
卫星平台:
Starlink V1.0
覆盖范围:
全球
运营商:
太空探索技术公司
运营商所在国:
美国
制造商(研发单位):
太空探索技术公司
制造商所在国:
美国
使用方式:
暂无
Satellite Introduction
星链(Starlink)计划是由太空探索技术公司(SpaceX)提出的一个巨型低轨卫星互联网星座项目,计划在2019年至2024年间在太空搭建由约1.2万颗卫星组成的“星链”网络,其中1584颗将部署在地球上空550千米处的近地轨道,并从2020年开始工作。该卫星已陨落。